User: anonymous   Login
Location: NC_16_and_73
(35.4490°N, 81.0150°W)
Time: 05:22:25
(UTC-04:00)
Language:

Cosmos-2242 - Orbit

View from above orbital plane
View from above orbital plane
View from above satellite
View from above satellite

Ground track
Ground track

The orbit data is extracted from the following two-line orbital elements,

1 22626U 93024A   14295.82499840  .00002855  00000-0  32151-3 0  2405
2 22626 082.5246 234.0440 0021479 093.1871 267.1804 14.86164837162225
Epoch (UTC): 22 October 2014 19:47:59
Eccentricity: 0.0021479
inclination: 82.5246°
perigee height: 595 km
apogee height: 625 km
right ascension of ascending node: 234.0440°
argument of perigee: 93.1871°
revolutions per day: 14.86164837
mean anomaly at epoch: 267.1804°
orbit number at epoch: 16222

The dashed part of the orbit path shows where the satellite is in the earth's shadow,  

DLR